Location: Alincthun
(50.7310°N, 1.8022°E)
Time: 17:56:51
(UTC+00:00)

Cosmos 1802 Rocket - Pass Details

Date: 17 February 2020
Orbit: 955 x 1011 km, 82.9° (Epoch: 27 March)

Event Time Altitude Azimuth Distance (km) Brightness Sun altitude
Rises 05:23:58 0° 350° (N) 3,751 7.0 -16.2°
Reaches altitude 10° 05:26:30 10° 350° (N) 2,800 6.3 -15.8°
Maximum altitude 05:32:59 88° 78° (ENE) 1,020 4.1 -14.7°
Drops below altitude 10° 05:39:25 10° 171° (S) 2,782 6.5 -13.7°
Sets 05:41:56 0° 172° (S) 3,725 7.2 -13.3°
